Location: Bastrop State Park
(30.1090°N, 97.2819°W)
Time: 03:31:49
(UTC-05:00)

ISS - Visible Passes

Search period start: 24 September 2017 00:00
Search period end: 04 October 2017 00:00
Orbit: 401 x 407 km, 51.6° (Epoch: 24 September)

Date Brightness Start Highest point End Pass type
(mag) Time Alt. Az. Time Alt. Az. Time Alt. Az.
24 Sep -1.4 21:17:06 10° W 21:19:35 20° NW 21:19:46 20° NNW visible
25 Sep -2.5 20:24:05 10° WSW 20:27:10 39° NW 20:30:16 10° NNE visible
27 Sep -1.0 20:16:58 10° WNW 20:19:06 16° NW 20:21:15 10° N visible
